User: anonymous   Login
Location: Esp�n
(42.4593°N, 0.2047°W)
Time: 18:36:47
(UTC+00:00)
Language:

Cosmos 2263 Rocket - Orbit

View from above orbital plane
View from above orbital plane
View from above satellite
View from above satellite

Ground track
Ground track

The orbit data is extracted from the following two-line orbital elements,

1 22803U 93059B   20220.80017220 -.00000215 +00000-0 -83161-4 0  9990
2 22803 070.9921 351.0568 0014980 075.7746 284.5040 14.16825751390578
Epoch (UTC): 07 August 2020 19:12:14
Eccentricity: 0.0014980
inclination: 70.9921°
perigee height: 825 km
apogee height: 847 km
right ascension of ascending node: 351.0568°
argument of perigee: 75.7746°
revolutions per day: 14.16825751
mean anomaly at epoch: 284.5040°
orbit number at epoch: 39057

The dashed part of the orbit path shows where the satellite is in the earth's shadow,  

DLR